STARLINK-1633, 46171

Orbit data source: Space-Track

STARLINK-1633, 46171 is a payload satellite owned by SpaceX/Seattle (US) in LEO that was launched on Tue, 18 Aug 2020 UTC via an FALCON 9 launch vehicle from the Air Force Eastern Test Range (AFETR). Payload-class satellites include a variety of spacecraft equipped with specific instruments for various scientific and technological missions. These include communications satellites like Starlink; space stations such as the ISS; scientific satellites like the Hubble; Earth observation satellites from companies like Planet Labs, Umbra, and HawkEye 360; GPS; miniature CubeSats for education and research; and military/defense satellites.

Loading next visibility...
Identifier
46171, 2020-057BG
Orbit
LEO
Country
Flag of USUS
Related business
Manufacturer
SpaceX/Seattle
Mission
Partially operational Commercial Communications
Bus & Motor
STARLINK, Unknown motor
Mass
260 kg wet, ~248 kg dry
Launch date (UTC)
2020-08-18 (6 years ago)
Launch vehicle
FALCON 9
Launch site
Air Force Eastern Test Range (AFETR)
Object type
Payload
Rocket body
Debris
Shape & HBR
Box + 1 Pan, 10.1 m
Radar Cross Section
13.562 m², Large (>1 m²)

Expand to show TLE details & history
Last TLE update: 7 hours ago

TLE from 7 hours ago
0 STARLINK-1633
1 46171U 20057BG  26072.66667824  .00102554  00000-0  12236-2 0  9998
2 46171  53.0423 239.7220 0003916 311.0735  14.4694 15.60262472  5730
Epoch: 2026-03-13T16:00Z
TLE epoch observation values (Epoch: 2026-03-13T16:00:00.999Z)
Latitude
-27.07462°
Longitude
165.93332°
Altitude
392.355 km
Speed
7.676 km/s
True Right ascension
14h 28m 56s
True Declination
-26° 55' 41"
Sunlit
Object was in full shadow at epoch
Visualization orbit readout
Latitude
Unknown
Longitude
Unknown
Altitude
Unknown
Speed
Unknown
Apparent Right ascension
Unknown
Apparent Declination
Unknown
Sunlit
N/A
Visualization observer readout
Local Sidereal Time
03:39:17
Azimuth
Unknown
Elevation
Unknown
Doppler factor
Unknown
Orbital elements
Apogee altitude
389.827 km
Perigee altitude
384.528 km
Semi-major axis
6,765.314 km
Eccentricity
0.00039
Inclination
53.0423°
RAAN
239.722°
Arg. of periapsis
311.0735°
True anomaly
14.48062°
Mean anomaly
14.4694°
Eccentric anomaly
14.47501°
Mean motion
3.90042 °/min
Orbital period
92.3 mins
BSTAR
0.0012236
Loading maneuver chart data...
Computing Atmospheric mass density...
Loading historical data...
Loading historical data...
Loading historical data...
Loading historical data...
Loading historical data...
Loading historical data...
Loading historical data...

Documentation

Showing up to 5 results
|